Location: Ingoldesthorpe
(52.8667°N, 0.5167°E)
Time: 05:42:08
(UTC+00:00)

NOSS 7 (H) - Pass Details

Date: 19 May 2025
Orbit: 362 x 1536 km, 63.3° (Epoch: 13 June)

Event Time Altitude Azimuth Distance (km) Brightness Sun altitude
Rises 20:46:45 0° 313° (NW) 2,223 10.6 -6.6°
Reaches altitude 10° 20:48:43 10° 313° (NW) 1,359 8.7 -6.8°
Maximum altitude 20:51:37 88° 42° (NE) 381 4.0 -7.1°
Enters shadow 20:54:45 10° 133° (SE) 1,473 6.3 -7.4°
